[[{"header":{"parameterUnit":"m.s-1","parameterCategory":2,"la1":30.2991,"la2":30.254,"lo1":-89.0895,"lo2":-89.0444,"dy":0.0017,"dx":0.0017,"nx":28,"ny":28,"refTime":"2024-08-05T21:00:00:Z","depth":"0","parameterNumber":2,"parameterNumberName":"U-component_of_CURRENTS"},"data":[0,0,0,0,0,0,0,0,0,0,0,0,0,0,0,0,0,0,0,0,0,0,0,0,0,0,0,0,0,0,0,0,0,0,0,0,0,0,0,0,0,0,0,0,0,0,0,0,0,0,0,0,0,0,0,0,0,0,0.2012,0.2011,0,0.1923,0.1921,0.192,0.1856,0.1856,0.1856,0.1856,0.1779,0.1776,0.1774,0,0,0,0,0,0,0,0,0,0,0,0,0,0.1979,0.198,0.2012,0.2011,0.2011,0.1923,0.1921,0.1919,0.1856,0.1856,0.1856,0.1856,0.1779,0.1777,0.1774,0,0,0,0,0,0,0,0,0,0,0,0,0,0.1945,0.198,0.2012,0.1974,0.197,0.1924,0.1921,0.1919,0.1856,0.1856,0.1856,0.1856,0.178,0.1777,0.1774,0.1749,0,0,0.1764,0.1762,0,0,0,0,0,0,0,0,0.1947,0.1946,0.198,0.1976,0.1972,0.1907,0.1881,0.1865,0.1856,0.1891,0.1856,0.1856,0.1827,0.182,0.1792,0.1746,0.1742,0.1763,0.1761,0.176,0.1759,0,0,0,0,0,0,0,0.195,0.1948,0.1969,0.198,0.1975,0.1911,0.1907,0.1877,0.1854,0.1888,0.1885,0.1887,0.1824,0.1796,0.179,0.1741,0.1763,0.1761,0.1759,0.1757,0.1756,0.1758,0,0,0,0,0,0,0.1984,0.1952,0.1972,0.1967,0.1968,0.1913,0.1908,0.1922,0.1854,0.1846,0.1887,0.1884,0.1801,0.1794,0.1787,0.1785,0.176,0.1757,0.1755,0.1754,0.1756,0.1758,0,0,0,0,0,0,0.1983,0.1987,0.1976,0.1962,0.1957,0.1915,0.193,0.192,0.1893,0.1854,0.1844,0.1872,0.1801,0.1792,0.1768,0.1781,0.1755,0.1752,0.1752,0.1755,0.1757,0.1761,0,0,0,0,0,0,0.1983,0.1987,0.1988,0.1965,0.196,0.1949,0.193,0.1918,0.1898,0.1893,0.1838,0.1831,0.18,0.1773,0.1765,0.1776,0.175,0.1749,0.1753,0.1756,0.1759,0.1764,0.1769,0,0,0,0,0,0.1982,0.1986,0.1989,0.199,0.197,0.1949,0.1939,0.1903,0.1897,0.188,0.1854,0.1832,0.1792,0.1771,0.1761,0.1771,0.1747,0.1752,0.1756,0.1757,0.1763,0.1768,0,0,0,0,0,0,0.1968,0.198,0.1982,0.199,0.1974,0.1941,0.1923,0.1907,0.1869,0.1873,0.1831,0.1822,0.1813,0.18,0.1778,0.1791,0.1777,0.1779,0.1781,0.1786,0.1791,0.1801,0.1747,0,0,0,0,0,0.1972,0.1978,0.1979,0.1981,0.1982,0.1955,0.1938,0.1925,0.1901,0.1883,0.1848,0.1833,0.1822,0.181,0.1794,0.1782,0.1778,0.1796,0.1801,0.1805,0.1812,0.1816,0.1821,0.1773,0.1773,0.1773,0,0,0.197,0.1974,0.198,0.1978,0.1965,0.1958,0.1942,0.1932,0.1922,0.1883,0.1851,0.1839,0.1825,0.1816,0.1814,0.1804,0.1818,0.181,0.1813,0.1818,0.1821,0.1825,0.1829,0.1776,0.1775,0.1775,0,0,0.1972,0.1978,0.1986,0.1976,0.1972,0.1957,0.1962,0.194,0.1925,0.1903,0.1887,0.1886,0.1849,0.1846,0.1841,0.187,0.1844,0.1875,0.1896,0.1899,0.1902,0.1905,0.1902,0.1904,0.1876,0.1876,0.1876,0,0.196,0.1984,0.198,0.1981,0.1975,0.1964,0.1968,0.1948,0.1917,0.1914,0.1903,0.1884,0.1868,0.1873,0.1886,0.1877,0.1871,0.1863,0.1902,0.1904,0.1907,0.1903,0.1905,0.1877,0.1877,0.1877,0.1877,0,0.1975,0.1984,0.1987,0.199,0.1978,0.1979,0.1972,0.1956,0.1947,0.1936,0.1938,0.1919,0.1914,0.1917,0.1902,0.1924,0.191,0.1902,0.1875,0.1911,0.1906,0.1908,0.1878,0.1878,0.1878,0.1877,0,0,0.1967,0.1994,0.1992,0.1998,0.1988,0.1982,0.1974,0.1969,0.1968,0.1954,0.1956,0.1955,0.1957,0.1956,0.1948,0.1952,0.1961,0.1934,0.1934,0.1912,0.196,0.195,0.1952,0.1948,0.1949,0.1949,0.1946,0,0.1974,0.1991,0.2001,0.2002,0.2007,0.1997,0.199,0.1983,0.197,0.1962,0.1975,0.1971,0.1969,0.1967,0.1976,0.1959,0.1968,0.1962,0.1947,0.1946,0.1917,0.1955,0.1994,0.1994,0.1948,0.1948,0.1949,0,0.1976,0.199,0.2003,0.2019,0.2023,0.2018,0.2005,0.2001,0.1995,0.1993,0.2001,0.1994,0.2006,0.1999,0.2001,0.1992,0.1987,0.1977,0.1976,0.1968,0.1942,0.1956,0.2,0.1982,0.1952,0.1952,0.1951,0,0.1953,0.1983,0.1996,0.1995,0.201,0.2014,0.202,0.2009,0.2009,0.2008,0.201,0.2018,0.2019,0.2019,0.2001,0.1997,0.1996,0.1987,0.198,0.1978,0.2012,0.2012,0.2022,0.2005,0.2005,0.2005,0.2005,0,0.1932,0.1937,0.1991,0.1987,0.2008,0.2016,0.2022,0.2024,0.2029,0.2036,0.2032,0.2038,0.2023,0.2014,0.2007,0.1998,0.2004,0.1994,0.1983,0.2015,0.2016,0.2002,0.1983,0.2004,0.2004,0.2004,0.2004,0,0.1863,0.1907,0.1931,0.1978,0.1991,0.2,0.2029,0.2029,0.204,0.2045,0.2047,0.2046,0.2034,0.2015,0.2001,0.2001,0.195,0.1991,0.2025,0.2018,0.1994,0.1975,0.1843,0.1765,0.1986,0.1986,0.1986,0,0.178,0.1797,0.1908,0.194,0.1959,0.1982,0.1994,0.2023,0.2028,0.2052,0.2058,0.2047,0.2038,0.2016,0.2015,0.1999,0.1931,0.2021,0.2032,0.2008,0.1978,0.1846,0.1779,0.2077,0.2078,0.2078,0.2079,0,0.1614,0.1706,0.1751,0.1859,0.19,0.1958,0.1987,0.2,0.2031,0.2046,0.2067,0.2061,0.2051,0.2042,0.2016,0.2025,0.1952,0.203,0.2007,0.2057,0.1913,0.1829,0.2052,0.2083,0.2083,0.2083,0.2082,0.2082,0.1486,0.1514,0.1628,0.1727,0.1815,0.1911,0.1935,0.1984,0.201,0.2007,0.2045,0.2002,0.2041,0.2017,0.2038,0.207,0.1956,0.2066,0.2045,0.1911,0.1833,0.2058,0.2072,0.2071,0.2071,0.207,0.207,0,0.1309,0.1385,0.1466,0.1616,0.1699,0.1808,0.1897,0.1915,0.1945,0.1948,0.1952,0.1934,0.196,0.1988,0.2083,0.21,0.1996,0.2067,0.193,0.1862,0.21,0.2107,0.2128,0.2128,0.2128,0.2128,0.2128,0.2128,0.1208,0.1241,0.1322,0.1424,0.1559,0.1658,0.1719,0.1785,0.1809,0.1771,0.1724,0.1718,0.1848,0.2058,0.214,0.2127,0.1938,0.1906,0.1782,0.2042,0.2041,0.2039,0.2043,0.2049,0.2049,0.1509,0.1505,0.1502]},{"header":{"parameterUnit":"m.s-1","parameterCategory":2,"la1":30.2991,"la2":30.254,"lo1":-89.0895,"lo2":-89.0444,"dy":0.0017,"dx":0.0017,"nx":28,"ny":28,"refTime":"2024-08-05T21:00:00:Z","depth":"0","parameterNumber":3,"parameterNumberName":"V-component_of_CURRENTS"},"data":[0,0,0,0,0,0,0,0,0,0,0,0,0,0,0,0,0,0,0,0,0,0,0,0,0,0,0,0,0,0,0,0,0,0,0,0,0,0,0,0,0,0,0,0,0,0,0,0,0,0,0,0,0,0,0,0,0,0,-0.2696,-0.2696,0,-0.2582,-0.258,-0.2578,-0.2488,-0.2488,-0.2488,-0.2488,-0.2349,-0.2345,-0.2341,0,0,0,0,0,0,0,0,0,0,0,0,0,-0.2639,-0.2641,-0.2696,-0.2696,-0.2695,-0.2582,-0.258,-0.2577,-0.2488,-0.2488,-0.2488,-0.2488,-0.235,-0.2345,-0.2341,0,0,0,0,0,0,0,0,0,0,0,0,0,-0.26,-0.2642,-0.2696,-0.2644,-0.2639,-0.2583,-0.2579,-0.2576,-0.2488,-0.2488,-0.2488,-0.2488,-0.2351,-0.2346,-0.234,-0.2305,0,0,-0.2323,-0.2321,0,0,0,0,0,0,0,0,-0.2602,-0.2601,-0.2653,-0.2648,-0.2642,-0.2558,-0.2509,-0.2488,-0.2488,-0.2535,-0.2488,-0.2488,-0.2423,-0.2411,-0.2376,-0.2298,-0.2292,-0.2323,-0.2319,-0.2317,-0.2315,0,0,0,0,0,0,0,-0.2605,-0.2604,-0.2641,-0.2652,-0.2646,-0.2559,-0.2554,-0.2502,-0.2472,-0.2531,-0.2527,-0.253,-0.2418,-0.2382,-0.2372,-0.229,-0.2323,-0.2318,-0.2314,-0.2312,-0.2348,-0.2353,0,0,0,0,0,0,-0.265,-0.2608,-0.2645,-0.2639,-0.2633,-0.2562,-0.2556,-0.2577,-0.2473,-0.246,-0.253,-0.2526,-0.2391,-0.2379,-0.2367,-0.2386,-0.2317,-0.2312,-0.2308,-0.2344,-0.2349,-0.2354,0,0,0,0,0,0,-0.2649,-0.2655,-0.265,-0.2626,-0.2621,-0.2566,-0.2588,-0.2575,-0.255,-0.2474,-0.2459,-0.2522,-0.2391,-0.2375,-0.2337,-0.2378,-0.2309,-0.2304,-0.2339,-0.2346,-0.2352,-0.2382,0,0,0,0,0,0,-0.2649,-0.2656,-0.2665,-0.2631,-0.2625,-0.2641,-0.2589,-0.2573,-0.2556,-0.255,-0.2462,-0.2448,-0.2389,-0.2346,-0.2331,-0.2369,-0.23,-0.2334,-0.2342,-0.235,-0.2376,-0.2389,-0.2401,0,0,0,0,0,-0.2647,-0.2665,-0.2667,-0.267,-0.2648,-0.2643,-0.2631,-0.2582,-0.2557,-0.2556,-0.2495,-0.2451,-0.2391,-0.2342,-0.2324,-0.2362,-0.233,-0.234,-0.2349,-0.237,-0.2387,-0.24,0,0,0,0,0,0,-0.2645,-0.2658,-0.2659,-0.2681,-0.2679,-0.2632,-0.2619,-0.2596,-0.2543,-0.2532,-0.2455,-0.2437,-0.243,-0.2411,-0.236,-0.2415,-0.2374,-0.2381,-0.2397,-0.2412,-0.2424,-0.2439,-0.2295,0,0,0,0,0,-0.2656,-0.2671,-0.2679,-0.2696,-0.2702,-0.2665,-0.2649,-0.263,-0.259,-0.2566,-0.2511,-0.2479,-0.2457,-0.2442,-0.2414,-0.2411,-0.2411,-0.2452,-0.2464,-0.2474,-0.2486,-0.2531,-0.2546,-0.2386,-0.2386,-0.2386,0,0,-0.2661,-0.267,-0.2678,-0.2696,-0.2682,-0.2693,-0.2653,-0.2651,-0.265,-0.256,-0.253,-0.2498,-0.2467,-0.2466,-0.2469,-0.245,-0.2522,-0.2486,-0.2493,-0.2501,-0.2542,-0.2557,-0.257,-0.2393,-0.2392,-0.239,0,0,-0.2687,-0.2694,-0.2721,-0.2721,-0.2727,-0.271,-0.2725,-0.27,-0.268,-0.2658,-0.2611,-0.2614,-0.2558,-0.2557,-0.2546,-0.2624,-0.2578,-0.2635,-0.2696,-0.2739,-0.2751,-0.2761,-0.2768,-0.2778,-0.2648,-0.2648,-0.2648,0,-0.268,-0.2734,-0.2725,-0.2747,-0.2754,-0.2732,-0.2763,-0.2735,-0.2699,-0.2695,-0.2669,-0.2638,-0.2613,-0.2626,-0.2661,-0.2647,-0.2644,-0.2619,-0.2748,-0.2759,-0.2769,-0.2773,-0.2784,-0.2651,-0.2651,-0.265,-0.265,0,-0.2739,-0.2766,-0.2781,-0.2808,-0.2812,-0.2832,-0.2823,-0.2814,-0.2794,-0.2776,-0.2782,-0.2745,-0.2741,-0.2753,-0.2714,-0.2789,-0.2753,-0.2741,-0.2689,-0.2785,-0.2785,-0.2796,-0.2655,-0.2654,-0.2653,-0.2652,0,0,-0.2743,-0.2811,-0.2814,-0.284,-0.2848,-0.286,-0.2867,-0.288,-0.2881,-0.2863,-0.2876,-0.2873,-0.2862,-0.2858,-0.2833,-0.2873,-0.2938,-0.2839,-0.284,-0.2808,-0.3,-0.294,-0.2945,-0.2929,-0.2932,-0.2934,-0.2963,0,-0.2786,-0.2858,-0.288,-0.2928,-0.2956,-0.2944,-0.2954,-0.2952,-0.2932,-0.293,-0.2928,-0.2922,-0.2899,-0.2895,-0.2938,-0.2923,-0.2972,-0.293,-0.2946,-0.2947,-0.2851,-0.2959,-0.2734,-0.2739,-0.2974,-0.2975,-0.2977,0,-0.282,-0.2869,-0.2934,-0.2993,-0.3009,-0.3031,-0.3041,-0.3049,-0.3037,-0.3026,-0.3028,-0.2993,-0.3031,-0.3008,-0.3055,-0.3017,-0.3033,-0.303,-0.3031,-0.2973,-0.2909,-0.2691,-0.275,-0.2625,-0.2993,-0.2992,-0.2991,0,-0.2788,-0.2895,-0.2952,-0.2964,-0.3023,-0.305,-0.3087,-0.3079,-0.3081,-0.3081,-0.3079,-0.3092,-0.3096,-0.3124,-0.3106,-0.3085,-0.3149,-0.3122,-0.3088,-0.3081,-0.2897,-0.2871,-0.2806,-0.3204,-0.3204,-0.3203,-0.3203,0,-0.2775,-0.2807,-0.2954,-0.2951,-0.3035,-0.3076,-0.3116,-0.313,-0.3148,-0.3154,-0.3137,-0.3137,-0.3128,-0.3133,-0.3136,-0.3135,-0.3183,-0.3121,-0.3104,-0.2904,-0.2879,-0.2767,-0.2766,-0.3204,-0.3204,-0.3204,-0.3204,0,-0.2642,-0.2751,-0.2811,-0.294,-0.2994,-0.3037,-0.3139,-0.3155,-0.3183,-0.3186,-0.3188,-0.3179,-0.3178,-0.3156,-0.3184,-0.3164,-0.3098,-0.3172,-0.2918,-0.2872,-0.2714,-0.2724,-0.2777,-0.2742,-0.3136,-0.3135,-0.3134,0,-0.2555,-0.2571,-0.276,-0.2838,-0.2892,-0.2993,-0.3048,-0.314,-0.3158,-0.3204,-0.3205,-0.3202,-0.3167,-0.3168,-0.3096,-0.3069,-0.3062,-0.2898,-0.2849,-0.2698,-0.2697,-0.2754,-0.2725,-0.2605,-0.26,-0.2596,-0.2592,0,-0.2331,-0.2414,-0.2488,-0.268,-0.2795,-0.2909,-0.3015,-0.3052,-0.3137,-0.316,-0.3182,-0.3162,-0.3105,-0.2926,-0.2876,-0.2861,-0.2767,-0.2816,-0.2721,-0.2348,-0.2345,-0.23,-0.2579,-0.2555,-0.2559,-0.2561,-0.2563,-0.2565,-0.215,-0.2191,-0.2327,-0.2508,-0.266,-0.2784,-0.2833,-0.2944,-0.2992,-0.2978,-0.3069,-0.294,-0.2723,-0.2589,-0.2588,-0.234,-0.2555,-0.2251,-0.2296,-0.2384,-0.23,-0.2503,-0.2431,-0.2433,-0.2436,-0.2438,-0.244,0,-0.191,-0.2003,-0.2146,-0.2363,-0.2451,-0.2614,-0.276,-0.2778,-0.2814,-0.2781,-0.2766,-0.2419,-0.2197,-0.2034,-0.1764,-0.1746,-0.1799,-0.1774,-0.174,-0.1756,-0.1932,-0.1848,-0.1569,-0.1569,-0.1569,-0.1569,-0.1569,-0.1569,-0.1794,-0.1826,-0.1954,-0.2077,-0.2239,-0.2358,-0.2433,-0.2492,-0.2477,-0.2295,-0.205,-0.1912,-0.1578,-0.1412,-0.1249,-0.1286,-0.1317,-0.1363,-0.1514,-0.1512,-0.1558,-0.1601,-0.1517,-0.1173,-0.1173,-0.1214,-0.1214,-0.1214]}],[{"header":{"parameterUnit":"m.s-1","parameterCategory":2,"la1":30.2991,"la2":30.254,"lo1":-89.0895,"lo2":-89.0444,"dy":0.0017,"dx":0.0017,"nx":28,"ny":28,"refTime":"2024-08-05T21:00:00:Z","depth":"2","parameterNumber":2,"parameterNumberName":"U-component_of_CURRENTS"},"data":[0,0,0,0,0,0,0,0,0,0,0,0,0,0,0,0,0,0,0,0,0,0,0,0,0,0,0,0,0,0,0,0,0,0,0,0,0,0,0,0,0,0,0,0,0,0,0,0,0,0,0,0,0,0,0,0,0,0,0.0399,0.0399,0,0.0386,0.0385,0.0385,0.0365,0.0365,0.0365,0.0364,0.0433,0.0435,0.0437,0,0,0,0,0,0,0,0,0,0,0,0,0,0.0395,0.0395,0.0399,0.0399,0.0399,0.0386,0.0385,0.0385,0.0365,0.0365,0.0365,0.0364,0.0432,0.0434,0.0437,0,0,0,0,0,0,0,0,0,0,0,0,0,0.0389,0.0395,0.0399,0.0388,0.0387,0.0386,0.0385,0.0385,0.0365,0.0365,0.0364,0.0364,0.0431,0.0434,0.0437,0.0462,0,0,0.0446,0.0448,0,0,0,0,0,0,0,0,0.039,0.0389,0.039,0.0389,0.0388,0.0378,0.0409,0.0415,0.0365,0.0372,0.0364,0.0364,0.0423,0.0427,0.0422,0.0465,0.0468,0.0447,0.0448,0.045,0.0451,0,0,0,0,0,0,0,0.039,0.039,0.0392,0.039,0.0389,0.0381,0.0379,0.041,0.04,0.0371,0.037,0.0371,0.0423,0.0419,0.0423,0.0469,0.0447,0.0449,0.0451,0.0452,0.052,0.052,0,0,0,0,0,0,0.0396,0.039,0.0392,0.0392,0.039,0.0381,0.038,0.038,0.0398,0.04,0.0372,0.0371,0.0414,0.042,0.0426,0.0465,0.045,0.0453,0.0454,0.052,0.052,0.052,0,0,0,0,0,0,0.0396,0.0396,0.0393,0.0392,0.0391,0.0382,0.0382,0.038,0.039,0.0397,0.0401,0.0386,0.0414,0.0422,0.0447,0.0468,0.0454,0.0457,0.052,0.052,0.052,0.0539,0,0,0,0,0,0,0.0396,0.0396,0.0405,0.0392,0.0391,0.0397,0.0383,0.038,0.0391,0.039,0.0411,0.0415,0.0414,0.0442,0.045,0.0472,0.0459,0.052,0.052,0.052,0.0539,0.054,0.0541,0,0,0,0,0,0.0396,0.0403,0.0406,0.0406,0.0402,0.0398,0.0396,0.0387,0.0392,0.0396,0.0401,0.0415,0.0447,0.0445,0.0454,0.0477,0.052,0.052,0.052,0.0538,0.054,0.0541,0,0,0,0,0,0,0.0414,0.0402,0.0404,0.0411,0.0409,0.0395,0.0399,0.0402,0.0408,0.0411,0.0421,0.0426,0.0456,0.0461,0.0458,0.0493,0.0485,0.0487,0.0495,0.0497,0.0498,0.0503,0.0462,0,0,0,0,0,0.0422,0.0421,0.0415,0.0423,0.0422,0.0418,0.042,0.0415,0.0416,0.0419,0.0438,0.045,0.0461,0.0474,0.0487,0.0515,0.0525,0.0532,0.0533,0.0534,0.0542,0.057,0.0575,0.052,0.052,0.052,0,0,0.0434,0.0427,0.043,0.0427,0.0424,0.0421,0.0418,0.0421,0.0427,0.0429,0.0454,0.0465,0.0469,0.0488,0.0502,0.0497,0.0552,0.0534,0.0535,0.0542,0.057,0.0576,0.0581,0.052,0.052,0.052,0,0,0.0444,0.045,0.0446,0.0443,0.044,0.0436,0.0444,0.0445,0.0451,0.0469,0.047,0.0492,0.0515,0.0519,0.0523,0.0543,0.056,0.0548,0.0562,0.0589,0.0594,0.0598,0.061,0.0615,0.0547,0.0547,0.0547,0,0.0468,0.0451,0.0448,0.0441,0.0442,0.0446,0.0447,0.0452,0.0465,0.048,0.0478,0.0515,0.0528,0.0547,0.0545,0.055,0.056,0.0558,0.0592,0.0597,0.0601,0.0612,0.0618,0.0547,0.0547,0.0547,0.0547,0,0.0459,0.0455,0.0454,0.0444,0.045,0.045,0.0455,0.0476,0.0492,0.0498,0.0533,0.0542,0.0564,0.057,0.0563,0.0601,0.0595,0.0594,0.0592,0.0608,0.0617,0.0623,0.0549,0.0548,0.0548,0.0548,0,0,0.0518,0.0457,0.0464,0.0453,0.0451,0.0456,0.0474,0.049,0.0511,0.0531,0.056,0.0577,0.0594,0.0598,0.0605,0.0625,0.0663,0.0623,0.0624,0.0641,0.0714,0.072,0.0727,0.067,0.0672,0.0673,0.0705,0,0.0523,0.048,0.0466,0.0465,0.0451,0.0465,0.0484,0.0505,0.0524,0.0557,0.0575,0.0602,0.06,0.0616,0.0638,0.0657,0.0681,0.0654,0.0691,0.0692,0.0701,0.0735,0.067,0.0695,0.0711,0.0712,0.0713,0,0.0538,0.0501,0.0477,0.0461,0.0464,0.048,0.0519,0.0533,0.0571,0.0587,0.0615,0.0627,0.0662,0.0658,0.0706,0.0688,0.0708,0.072,0.0721,0.0728,0.071,0.0682,0.0705,0.0723,0.0722,0.0721,0.072,0,0.0571,0.0529,0.0504,0.0498,0.0481,0.0507,0.0519,0.0555,0.0579,0.0614,0.0634,0.0665,0.0688,0.0718,0.0733,0.0729,0.0778,0.0775,0.0799,0.0798,0.0751,0.0744,0.0822,0.0822,0.0822,0.0822,0.0822,0,0.0569,0.0604,0.0519,0.0516,0.0531,0.0524,0.0567,0.0585,0.0619,0.0656,0.0658,0.0688,0.0707,0.0728,0.0746,0.0786,0.0791,0.0815,0.0817,0.0753,0.0747,0.0777,0.0771,0.0823,0.0823,0.0823,0.0822,0,0.0665,0.0598,0.0614,0.0565,0.0548,0.0586,0.0596,0.0619,0.0644,0.0693,0.0707,0.0718,0.0745,0.075,0.079,0.0806,0.0838,0.085,0.0765,0.0758,0.0838,0.0832,0.0898,0.0899,0.0899,0.09,0.09,0,0.0647,0.0655,0.0652,0.0626,0.0622,0.0634,0.0633,0.065,0.0674,0.0717,0.0745,0.0765,0.0777,0.081,0.0873,0.091,0.0856,0.0824,0.082,0.0855,0.085,0.0844,0.0838,0.0753,0.0752,0.0752,0.0751,0,0.0621,0.0701,0.0709,0.0694,0.0684,0.0682,0.0684,0.0692,0.0722,0.0754,0.0794,0.08,0.0864,0.0872,0.0893,0.0887,0.0815,0.0815,0.0878,0.075,0.0723,0.0717,0.0715,0.0745,0.0746,0.0746,0.0747,0.0747,0.0632,0.0656,0.0669,0.071,0.0719,0.0714,0.0705,0.0704,0.073,0.0712,0.0781,0.0737,0.0761,0.0775,0.0816,0.0849,0.0909,0.0803,0.0803,0.0804,0.0787,0.0764,0.0789,0.079,0.0791,0.0791,0.0792,0,0.0496,0.0591,0.0609,0.0656,0.0734,0.0743,0.0715,0.0662,0.0664,0.0653,0.0668,0.0531,0.0597,0.0614,0.0753,0.0829,0.0796,0.0702,0.065,0.0656,0.0662,0.0636,0.0599,0.0598,0.0598,0.0598,0,0,0.046,0.0476,0.053,0.0614,0.0696,0.0681,0.0665,0.0581,0.0534,0.0376,0.0333,0.0404,0.052,0.0498,0.0579,0.0624,0.0599,0.0568,0.0718,0.0655,0.0659,0.0717,0.0685,0,0,0,0,0]},{"header":{"parameterUnit":"m.s-1","parameterCategory":2,"la1":30.2991,"la2":30.254,"lo1":-89.0895,"lo2":-89.0444,"dy":0.0017,"dx":0.0017,"nx":28,"ny":28,"refTime":"2024-08-05T21:00:00:Z","depth":"2","parameterNumber":3,"parameterNumberName":"V-component_of_CURRENTS"},"data":[0,0,0,0,0,0,0,0,0,0,0,0,0,0,0,0,0,0,0,0,0,0,0,0,0,0,0,0,0,0,0,0,0,0,0,0,0,0,0,0,0,0,0,0,0,0,0,0,0,0,0,0,0,0,0,0,0,0,0.0652,0.0652,0,0.0648,0.0648,0.0647,0.0589,0.0588,0.0587,0.0586,0.0456,0.0454,0.0451,0,0,0,0,0,0,0,0,0,0,0,0,0,0.0594,0.0595,0.0652,0.0652,0.0653,0.0648,0.0648,0.0647,0.0589,0.0588,0.0587,0.0585,0.0457,0.0454,0.0451,0,0,0,0,0,0,0,0,0,0,0,0,0,0.0603,0.0596,0.0652,0.0627,0.0625,0.0648,0.0648,0.0647,0.0589,0.0588,0.0586,0.0585,0.0458,0.0455,0.0451,0.0457,0,0,0.0439,0.0438,0,0,0,0,0,0,0,0,0.0602,0.0604,0.063,0.0629,0.0627,0.0622,0.058,0.0579,0.059,0.0597,0.0586,0.0584,0.0505,0.0497,0.0494,0.0451,0.0445,0.0439,0.0437,0.0435,0.0434,0,0,0,0,0,0,0,0.0602,0.0604,0.0645,0.0631,0.0629,0.0612,0.0611,0.058,0.0553,0.0597,0.0594,0.0602,0.0502,0.0498,0.049,0.0443,0.0439,0.0436,0.0433,0.0432,0.0391,0.0392,0,0,0,0,0,0,0.0616,0.0604,0.0645,0.0645,0.0617,0.0615,0.0613,0.0621,0.0556,0.0547,0.0604,0.06,0.0505,0.0495,0.0485,0.0433,0.0435,0.0431,0.0429,0.0389,0.0391,0.0392,0,0,0,0,0,0,0.0615,0.062,0.0645,0.0629,0.0631,0.0618,0.0626,0.0622,0.0575,0.0564,0.0551,0.0557,0.0503,0.049,0.0436,0.0429,0.043,0.0426,0.0388,0.039,0.0392,0.0363,0,0,0,0,0,0,0.0613,0.0619,0.0613,0.063,0.0633,0.0639,0.0628,0.0623,0.0588,0.0581,0.0521,0.051,0.0501,0.0442,0.0432,0.0424,0.0423,0.0387,0.0389,0.0391,0.0362,0.0363,0.0364,0,0,0,0,0,0.0611,0.0622,0.0613,0.0617,0.063,0.0639,0.0638,0.062,0.0587,0.0569,0.053,0.0509,0.0451,0.0439,0.0427,0.0417,0.0385,0.0388,0.0391,0.0362,0.0363,0.0364,0,0,0,0,0,0,0.0599,0.0619,0.0608,0.0624,0.0619,0.0631,0.0618,0.0596,0.0552,0.0534,0.0501,0.0489,0.045,0.0442,0.043,0.0422,0.0424,0.0425,0.0406,0.0407,0.0408,0.0407,0.042,0,0,0,0,0,0.0595,0.0599,0.0613,0.0619,0.0615,0.0602,0.0594,0.0584,0.0563,0.0539,0.0473,0.0448,0.0463,0.0435,0.0428,0.0397,0.0387,0.0396,0.0397,0.0398,0.0395,0.0378,0.0376,0.0401,0.0401,0.0401,0,0,0.059,0.0604,0.0603,0.0615,0.0606,0.0604,0.059,0.0579,0.0568,0.0533,0.0446,0.0433,0.0459,0.0442,0.0425,0.0421,0.0387,0.0401,0.0401,0.0398,0.0381,0.0378,0.0375,0.0403,0.0402,0.0402,0,0,0.0594,0.0591,0.0592,0.0589,0.0586,0.0588,0.0572,0.0536,0.0507,0.0456,0.0451,0.0423,0.038,0.0405,0.0427,0.0428,0.0397,0.0427,0.0413,0.0397,0.0393,0.039,0.0367,0.0363,0.0421,0.0421,0.0421,0,0.0567,0.0592,0.0591,0.0592,0.059,0.0571,0.0566,0.0553,0.0489,0.0471,0.0424,0.0392,0.0381,0.0427,0.0429,0.0426,0.0404,0.0399,0.0394,0.0391,0.0388,0.0365,0.036,0.042,0.042,0.042,0.042,0,0.0586,0.0586,0.0585,0.058,0.0575,0.0571,0.0565,0.0519,0.0467,0.0451,0.042,0.0398,0.0382,0.0389,0.0404,0.0403,0.0389,0.0396,0.0379,0.0383,0.036,0.0355,0.0418,0.0419,0.0419,0.0419,0,0,0.0534,0.0586,0.0571,0.058,0.0568,0.0574,0.0555,0.055,0.0534,0.0459,0.0431,0.0441,0.0393,0.0416,0.0416,0.0398,0.0351,0.0374,0.0374,0.0331,0.0295,0.0347,0.0346,0.034,0.0339,0.0339,0.0282,0,0.0522,0.056,0.0572,0.0571,0.0584,0.0569,0.0556,0.0549,0.0516,0.0469,0.0472,0.0435,0.0424,0.039,0.0378,0.0363,0.0338,0.0365,0.0316,0.0314,0.0343,0.0343,0.0464,0.0429,0.0277,0.0276,0.0276,0,0.0484,0.0543,0.0555,0.0593,0.0588,0.0567,0.0552,0.054,0.052,0.0484,0.0454,0.0432,0.0408,0.0379,0.0341,0.0349,0.0313,0.0297,0.0295,0.035,0.0358,0.0405,0.0426,0.0268,0.0268,0.0269,0.0269,0,0.0443,0.0493,0.0515,0.0522,0.0568,0.0544,0.0538,0.052,0.05,0.0459,0.0414,0.0412,0.0349,0.0334,0.0283,0.0295,0.0231,0.0253,0.0274,0.0276,0.0377,0.039,0.0216,0.0216,0.0216,0.0216,0.0217,0,0.0393,0.0354,0.0494,0.0505,0.0518,0.0525,0.0493,0.0482,0.0446,0.0409,0.0389,0.035,0.032,0.0284,0.0274,0.0253,0.0218,0.027,0.0268,0.0373,0.0386,0.025,0.0255,0.0214,0.0215,0.0215,0.0216,0,0.0207,0.0291,0.0319,0.0446,0.0484,0.0447,0.0452,0.0445,0.0387,0.0329,0.0295,0.0264,0.0197,0.0189,0.0149,0.0215,0.0213,0.0208,0.0329,0.0344,0.0274,0.0278,0.0252,0.0253,0.0254,0.0255,0.0256,0,0.0125,0.0142,0.0305,0.0343,0.0356,0.0363,0.0394,0.0391,0.0383,0.0279,0.0263,0.0164,0.0156,0.0147,0.0168,0.018,0.0156,0.0361,0.0431,0.0278,0.0278,0.0281,0.0283,0.0543,0.0546,0.0549,0.0551,0,0.0054,0.0072,0.0167,0.0202,0.0241,0.0315,0.0346,0.0385,0.0355,0.0311,0.0258,0.0237,0.0156,0.0252,0.0264,0.0305,0.0386,0.0416,0.0212,0.0525,0.0551,0.0552,0.0545,0.0574,0.0571,0.057,0.0568,0.0568,0.0019,0.0052,0.0168,0.0113,0.0185,0.0283,0.0351,0.0404,0.0432,0.0447,0.0372,0.0385,0.0442,0.0516,0.043,0.0364,0.0419,0.0576,0.0568,0.0558,0.0611,0.064,0.0687,0.0686,0.0684,0.0683,0.0682,0,0.0146,0.0083,0.0098,0.0164,0.0193,0.0168,0.0355,0.0464,0.0566,0.0533,0.0527,0.0649,0.0742,0.0634,0.0565,0.0588,0.0538,0.0598,0.0595,0.0584,0.0571,0.0619,0.0699,0.0696,0.0694,0.0691,0,0,0.0135,0.0165,0.0134,0.0178,0.0174,0.0298,0.0413,0.0553,0.0613,0.0728,0.0744,0.0892,0.0835,0.083,0.0809,0.0696,0.0592,0.067,0.0714,0.0712,0.0692,0.0681,0.0762,0,0,0,0,0]}],[{"header":{"parameterUnit":"m.s-1","parameterCategory":2,"la1":30.2991,"la2":30.254,"lo1":-89.0895,"lo2":-89.0444,"dy":0.0017,"dx":0.0017,"nx":28,"ny":28,"refTime":"2024-08-05T21:00:00:Z","depth":"4","parameterNumber":2,"parameterNumberName":"U-component_of_CURRENTS"},"data":[0,0,0,0,0,0,0,0,0,0,0,0,0,0,0,0,0,0,0,0,0,0,0,0,0,0,0,0,0,0,0,0,0,0,0,0,0,0,0,0,0,0,0,0,0,0,0,0,0,0,0,0,0,0,0,0,0,0,-0.0266,-0.0266,0,-0.0262,-0.0262,-0.0262,-0.0269,-0.0269,-0.0269,-0.0269,-0.0268,-0.0268,-0.0268,0,0,0,0,0,0,0,0,0,0,0,0,0,-0.0278,-0.0278,-0.0266,-0.0266,-0.0266,-0.0262,-0.0262,-0.0262,-0.0268,-0.0269,-0.0269,-0.0269,-0.0269,-0.0268,-0.0268,0,0,0,0,0,0,0,0,0,0,0,0,0,-0.0274,-0.0278,-0.0266,-0.0268,-0.0268,-0.0262,-0.0262,-0.0262,-0.0268,-0.0269,-0.0269,-0.0269,-0.0269,-0.0268,-0.0268,-0.0261,0,0,-0.0267,-0.0267,0,0,0,0,0,0,0,0,-0.0274,-0.0273,-0.0268,-0.0268,-0.0268,-0.0266,-0.0266,-0.0262,-0.0268,-0.0269,-0.0269,-0.0269,-0.0267,-0.0267,-0.0267,-0.0261,-0.0261,-0.0267,-0.0267,-0.0267,-0.0267,0,0,0,0,0,0,0,-0.0274,-0.0274,-0.0265,-0.0268,-0.0268,-0.0269,-0.0269,-0.0266,-0.0267,-0.0269,-0.0269,-0.0268,-0.0268,-0.0267,-0.0267,-0.0261,-0.0267,-0.0267,-0.0267,-0.0267,-0.0235,-0.0234,0,0,0,0,0,0,-0.0274,-0.0274,-0.0265,-0.0265,-0.0271,-0.0269,-0.0268,-0.0267,-0.0267,-0.0267,-0.0268,-0.0268,-0.0267,-0.0267,-0.0267,-0.0241,-0.0267,-0.0267,-0.0267,-0.0236,-0.0235,-0.0234,0,0,0,0,0,0,-0.0274,-0.0273,-0.0265,-0.0269,-0.0268,-0.0268,-0.0266,-0.0266,-0.0263,-0.0266,-0.0267,-0.0264,-0.0267,-0.0267,-0.026,-0.0241,-0.0267,-0.0266,-0.0237,-0.0236,-0.0235,-0.02,0,0,0,0,0,0,-0.0274,-0.0273,-0.0272,-0.0269,-0.0268,-0.0256,-0.0266,-0.0266,-0.0262,-0.0262,-0.0263,-0.0263,-0.0267,-0.026,-0.026,-0.0242,-0.0266,-0.0237,-0.0236,-0.0235,-0.0202,-0.0198,-0.0195,0,0,0,0,0,-0.0275,-0.0272,-0.0272,-0.0271,-0.0266,-0.0255,-0.0255,-0.0256,-0.0261,-0.0255,-0.0257,-0.0263,-0.0252,-0.026,-0.0259,-0.024,-0.0238,-0.0237,-0.0235,-0.0204,-0.0199,-0.0195,0,0,0,0,0,0,-0.0276,-0.0272,-0.0272,-0.0268,-0.0259,-0.0256,-0.0253,-0.0252,-0.025,-0.0252,-0.0257,-0.0257,-0.0243,-0.0247,-0.0256,-0.0227,-0.0244,-0.0243,-0.0221,-0.0217,-0.0213,-0.0213,-0.0266,0,0,0,0,0,-0.0275,-0.0273,-0.0265,-0.0262,-0.0257,-0.0254,-0.0251,-0.0249,-0.0246,-0.0245,-0.0247,-0.0245,-0.0236,-0.0232,-0.0228,-0.0214,-0.0228,-0.0201,-0.0197,-0.0194,-0.0193,-0.0188,-0.0184,-0.0229,-0.0229,-0.0229,0,0,-0.0273,-0.0273,-0.027,-0.0262,-0.0258,-0.0243,-0.0253,-0.0244,-0.0229,-0.0245,-0.0232,-0.0234,-0.023,-0.0213,-0.0207,-0.0214,-0.0192,-0.0192,-0.0189,-0.019,-0.0186,-0.0182,-0.0178,-0.0228,-0.0228,-0.0228,0,0,-0.0266,-0.0269,-0.0261,-0.0251,-0.0242,-0.0238,-0.0233,-0.0226,-0.022,-0.0205,-0.0211,-0.0206,-0.0193,-0.0189,-0.0183,-0.0157,-0.0173,-0.015,-0.0129,-0.0124,-0.0121,-0.0117,-0.0146,-0.0146,-0.0147,-0.0147,-0.0147,0,-0.026,-0.025,-0.0255,-0.0242,-0.023,-0.0232,-0.0211,-0.0204,-0.0195,-0.019,-0.0196,-0.0187,-0.0181,-0.0164,-0.0146,-0.0148,-0.0158,-0.0146,-0.0119,-0.0116,-0.0114,-0.0144,-0.0144,-0.0145,-0.0145,-0.0146,-0.0146,0,-0.0242,-0.0231,-0.0225,-0.0208,-0.0198,-0.0181,-0.0169,-0.0158,-0.0154,-0.0154,-0.0143,-0.0146,-0.014,-0.0132,-0.0125,-0.0101,-0.012,-0.0116,-0.0131,-0.0107,-0.0141,-0.0142,-0.0142,-0.0143,-0.0144,-0.0144,0,0,-0.0218,-0.0212,-0.0206,-0.0193,-0.0175,-0.0163,-0.0138,-0.0117,-0.0103,-0.0107,-0.0094,-0.008,-0.0096,-0.0091,-0.0092,-0.0083,-0.0071,-0.0083,-0.0083,-0.0114,-0.0081,-0.0074,-0.0075,-0.0056,-0.0055,-0.0055,-0.0118,0,-0.0192,-0.0168,-0.0168,-0.0134,-0.0115,-0.0108,-0.0084,-0.0072,-0.0066,-0.0058,-0.007,-0.006,-0.0076,-0.0066,-0.0064,-0.0067,-0.0068,-0.0056,-0.0098,-0.01,-0.0098,-0.0073,-0.0053,-0.0119,-0.0119,-0.0119,-0.0119,0,-0.0163,-0.0148,-0.0113,-0.0094,-0.0084,-0.0064,-0.0031,-0.0013,-0.0007,-0.0001,-0.0012,-0.0027,-0.0028,-0.0032,-0.0057,-0.0047,-0.0055,-0.0066,-0.0069,-0.0074,-0.0093,-0.0143,-0.0121,-0.0121,-0.0121,-0.012,-0.012,0,-0.0139,-0.011,-0.0082,-0.0071,-0.0045,-0.0024,-0.0011,0.0003,0.0018,0.0032,0.004,0.0013,0.0012,-0.001,-0.0049,-0.0038,-0.0083,-0.0074,-0.0091,-0.0094,-0.0098,-0.0101,-0.0079,-0.0079,-0.0079,-0.0079,-0.0079,0,-0.0112,-0.009,-0.0067,-0.0046,-0.0013,-0.0002,0.0031,0.0043,0.0059,0.0067,0.0064,0.0063,0.0028,-0.0011,-0.0045,-0.0087,-0.0088,-0.0087,-0.0098,-0.0086,-0.0086,-0.0101,-0.0102,-0.0081,-0.0081,-0.008,-0.008,0,-0.0097,-0.0087,-0.0042,-0.0002,-0.0002,0.0028,0.0048,0.0061,0.0091,0.0103,0.0112,0.0103,0.0067,0.0,-0.0042,-0.0075,-0.0117,-0.0129,-0.0143,-0.0155,-0.0136,-0.0135,-0.0144,-0.0144,-0.0145,-0.0145,-0.0145,0,-0.0091,-0.0075,-0.001,-0.0007,0.0008,0.0039,0.0043,0.0074,0.0086,0.0118,0.0116,0.0105,0.0087,-0.0,-0.0044,-0.013,-0.0127,-0.0163,-0.0112,-0.0127,-0.0137,-0.0136,-0.0135,-0.0145,-0.0145,-0.0145,-0.0145,0,-0.0078,-0.0048,-0.0002,0.0,0.0009,0.0024,0.0036,0.0051,0.0083,0.0118,0.0122,0.0102,0.0064,0.0007,-0.0061,-0.0117,-0.0146,-0.0163,-0.0162,-0.0114,-0.0127,-0.0137,-0.0136,-0.0145,-0.0145,-0.0145,-0.0145,0,-0.0059,-0.0033,0.0002,-0.0003,0.0004,-0.0012,0.0009,0.0019,0.0043,0.0088,0.0087,0.007,0.007,0.0014,-0.0054,-0.0105,-0.0094,-0.0106,-0.0108,-0.0108,-0.0067,-0.0076,-0.0083,0,0,0,0,0,-0.0055,-0.0052,-0.0044,-0.0034,-0.0026,-0.0044,-0.002,0.0004,0.0051,0.0049,0.0073,0.0042,-0.0001,-0.0011,-0.006,-0.0056,-0.0118,-0.0114,-0.0137,-0.0145,-0.0145,-0.01,0,0,0,0,0,0,-0.0061,-0.0031,-0.0039,-0.0069,-0.0089,-0.0094,-0.0083,-0.0055,-0.0043,0.0008,-0.0017,0.0026,-0.0025,0.0012,-0.0067,-0.0075,-0.0094,-0.0118,-0.0119,-0.0146,-0.0145,-0.0145,-0.0099,0,0,0,0,0]},{"header":{"parameterUnit":"m.s-1","parameterCategory":2,"la1":30.2991,"la2":30.254,"lo1":-89.0895,"lo2":-89.0444,"dy":0.0017,"dx":0.0017,"nx":28,"ny":28,"refTime":"2024-08-05T21:00:00:Z","depth":"4","parameterNumber":3,"parameterNumberName":"V-component_of_CURRENTS"},"data":[0,0,0,0,0,0,0,0,0,0,0,0,0,0,0,0,0,0,0,0,0,0,0,0,0,0,0,0,0,0,0,0,0,0,0,0,0,0,0,0,0,0,0,0,0,0,0,0,0,0,0,0,0,0,0,0,0,0,0.0441,0.0441,0,0.0462,0.0462,0.0462,0.0469,0.0469,0.0469,0.0469,0.0434,0.0433,0.0432,0,0,0,0,0,0,0,0,0,0,0,0,0,0.0401,0.0402,0.044,0.0441,0.0442,0.0462,0.0462,0.0462,0.0469,0.0469,0.0469,0.0469,0.0434,0.0433,0.0432,0,0,0,0,0,0,0,0,0,0,0,0,0,0.0418,0.0402,0.044,0.0449,0.045,0.0462,0.0462,0.0462,0.0469,0.0469,0.0469,0.0469,0.0435,0.0433,0.0432,0.0418,0,0,0.0427,0.0426,0,0,0,0,0,0,0,0,0.0417,0.0419,0.0447,0.0449,0.045,0.0465,0.0436,0.0446,0.0469,0.0459,0.0469,0.0469,0.0441,0.0439,0.0439,0.0416,0.0415,0.0427,0.0426,0.0425,0.0424,0,0,0,0,0,0,0,0.0416,0.0418,0.0446,0.0448,0.045,0.0451,0.0453,0.0438,0.0445,0.046,0.0461,0.0468,0.0441,0.0441,0.0438,0.0414,0.0427,0.0425,0.0424,0.0424,0.0397,0.0398,0,0,0,0,0,0,0.0418,0.0417,0.0446,0.0447,0.0437,0.0452,0.0454,0.0458,0.0447,0.0447,0.0467,0.0468,0.0444,0.044,0.0437,0.0457,0.0425,0.0423,0.0423,0.0397,0.0398,0.0398,0,0,0,0,0,0,0.0417,0.0421,0.0445,0.0435,0.0438,0.0453,0.0457,0.0458,0.0468,0.0454,0.0452,0.0477,0.0444,0.0439,0.0423,0.0455,0.0423,0.0421,0.0397,0.0397,0.0398,0.0474,0,0,0,0,0,0,0.0416,0.042,0.0427,0.0435,0.0439,0.0458,0.0457,0.0459,0.0473,0.0474,0.0461,0.0458,0.0443,0.0425,0.0421,0.0452,0.042,0.0397,0.0397,0.0398,0.0471,0.0477,0.0482,0,0,0,0,0,0.0415,0.0428,0.0427,0.0431,0.0447,0.0459,0.0461,0.047,0.0473,0.0479,0.0464,0.0458,0.0426,0.0423,0.0419,0.045,0.0396,0.0397,0.0397,0.0468,0.0476,0.0481,0,0,0,0,0,0,0.0419,0.043,0.0429,0.0446,0.0453,0.0461,0.0474,0.0475,0.047,0.0469,0.0453,0.0448,0.0446,0.0429,0.0427,0.0441,0.0414,0.0413,0.0469,0.0476,0.0481,0.0489,0.0419,0,0,0,0,0,0.0422,0.0431,0.0439,0.0453,0.046,0.0467,0.0475,0.0476,0.0473,0.0473,0.0465,0.0452,0.0443,0.0444,0.0425,0.0431,0.0442,0.0449,0.0454,0.0459,0.0461,0.053,0.0543,0.04,0.04,0.04,0,0,0.0426,0.0435,0.044,0.0454,0.0463,0.0466,0.0472,0.0485,0.0487,0.0467,0.047,0.0463,0.0444,0.045,0.045,0.0445,0.05,0.046,0.0465,0.0464,0.0532,0.0547,0.056,0.04,0.04,0.04,0,0,0.044,0.0451,0.0461,0.0463,0.0475,0.0477,0.0483,0.0492,0.0499,0.0497,0.0487,0.0493,0.0481,0.048,0.0477,0.0496,0.0518,0.0503,0.0552,0.062,0.0633,0.0645,0.0662,0.0675,0.0518,0.0519,0.0519,0,0.0449,0.046,0.0466,0.0471,0.0477,0.0482,0.0489,0.0492,0.0493,0.0503,0.0503,0.0507,0.0494,0.051,0.0528,0.0511,0.0547,0.0535,0.0631,0.0643,0.0654,0.0669,0.0682,0.0522,0.0522,0.0521,0.0521,0,0.0459,0.0469,0.0479,0.0482,0.0484,0.0497,0.0497,0.052,0.0533,0.0526,0.0549,0.0543,0.0553,0.056,0.0555,0.0626,0.0624,0.0626,0.0625,0.0674,0.0684,0.0697,0.0528,0.0526,0.0525,0.0524,0,0,0.0491,0.0489,0.0494,0.0498,0.0494,0.0502,0.052,0.0539,0.056,0.0569,0.0604,0.0605,0.0616,0.0613,0.0621,0.0687,0.0791,0.0711,0.0712,0.0742,0.0933,0.0861,0.0867,0.0844,0.0847,0.0849,0.0904,0,0.0508,0.0517,0.0508,0.0519,0.0528,0.0539,0.055,0.0559,0.0576,0.0607,0.0623,0.064,0.063,0.0666,0.0725,0.0771,0.0831,0.0773,0.0865,0.0866,0.0811,0.0882,0.0858,0.0914,0.0916,0.0919,0.092,0,0.0529,0.0532,0.0546,0.055,0.0556,0.0568,0.0613,0.0619,0.0648,0.0666,0.0696,0.0694,0.0758,0.0764,0.0869,0.0849,0.0901,0.0937,0.094,0.0856,0.0819,0.0855,0.0943,0.0941,0.0939,0.0938,0.0936,0,0.0564,0.0565,0.0583,0.0581,0.0581,0.0621,0.0637,0.0653,0.0684,0.0723,0.0749,0.0785,0.0828,0.0911,0.0938,0.095,0.1053,0.1067,0.1035,0.1028,0.1043,0.103,0.1165,0.1165,0.1165,0.1165,0.1165,0,0.0591,0.0608,0.0612,0.0628,0.0665,0.0651,0.071,0.0731,0.0774,0.0808,0.079,0.083,0.0886,0.0921,0.097,0.1014,0.1071,0.1053,0.1055,0.1067,0.1056,0.1051,0.1037,0.1167,0.1166,0.1166,0.1166,0,0.0621,0.0626,0.0651,0.0671,0.0691,0.072,0.0784,0.0827,0.084,0.0904,0.0929,0.0913,0.0964,0.0964,0.1068,0.1039,0.1096,0.1095,0.1063,0.1059,0.1024,0.1013,0.1108,0.1106,0.1105,0.1104,0.1103,0,0.0631,0.0649,0.0693,0.0735,0.076,0.0813,0.0866,0.0889,0.0926,0.0953,0.0984,0.1013,0.1007,0.1045,0.1057,0.1096,0.1094,0.1076,0.11,0.1035,0.1027,0.1018,0.1009,0.11,0.11,0.11,0.1099,0,0.0638,0.0666,0.0688,0.0786,0.0856,0.0918,0.0985,0.1011,0.1034,0.1046,0.1055,0.1045,0.1062,0.1063,0.1048,0.1086,0.1067,0.1062,0.1067,0.109,0.1026,0.1018,0.1011,0.1094,0.1095,0.1095,0.1096,0,0.0644,0.0665,0.0724,0.0812,0.0916,0.1004,0.1024,0.1068,0.1097,0.1098,0.111,0.11,0.1099,0.1059,0.1068,0.1062,0.1092,0.1066,0.1071,0.1077,0.1032,0.0945,0.1008,0,0,0,0,0,0.0616,0.0664,0.0753,0.0849,0.0971,0.1025,0.1098,0.1103,0.1108,0.1127,0.1119,0.1137,0.1115,0.1083,0.1082,0.1068,0.1092,0.1058,0.1067,0.1066,0.1072,0.1016,0,0,0,0,0,0,0.061,0.0669,0.0734,0.0885,0.0965,0.1079,0.1123,0.1123,0.1114,0.1111,0.1105,0.1096,0.1085,0.1132,0.1072,0.1067,0.1058,0.1054,0.1052,0.1063,0.1068,0.1073,0.1018,0,0,0,0,0]}]]